Terug naar catalogus

FENGYUN 1C DEB

ActiefSSO
NORAD 31634·DEBRIS·🇨🇳 China

Gelanceerd May 10, 1999 vanaf Taiyuan Satellite Launch Center

Loading…

Volgende Passages (komende 24 uur)

TLE

VersSource: Space-Track

Epoch: Sep 11, 2026, 20:52 UTC

1 31634U 99025CAQ 26254.86976875  .00000493  00000-0  38689-3 0  9990
2 31634  99.3330 309.8692 0092210 137.6234 223.2096 13.94881114603310

Volg FENGYUN 1C DEB in realtime met AllMySat

Download on the App Store